Location: Mount Graham
(32.7016°N, 109.8912°W)
Time: 15:28:30
(UTC-07:00)

Cosmos 1340 - Visible Passes

Search period start: 28 August 2016 00:00
Search period end: 07 September 2016 00:00
Orbit: 507 x 513 km, 81.2° (Epoch: 27 August)

Date Brightness Start Highest point End Pass type
(mag) Time Alt. Az. Time Alt. Az. Time Alt. Az.
28 Aug 4.3 20:53:22 10° N 20:55:15 28° N 20:55:15 28° N visible
29 Aug 3.9 20:36:32 10° N 20:38:50 32° NNE 20:38:50 32° NNE visible
30 Aug 3.6 20:19:45 10° N 20:22:27 34° NE 20:22:27 34° NE visible
31 Aug 3.6 20:03:02 10° NNE 20:06:07 30° ENE 20:06:07 30° ENE visible
31 Aug 5.9 21:40:24 10° WNW 21:41:02 11° WNW 21:41:02 11° WNW visible
01 Sep 3.8 19:46:23 10° NNE 19:49:30 24° ENE 19:49:51 23° E visible
01 Sep 5.5 21:22:44 10° NW 21:24:46 15° W 21:24:46 15° W visible
02 Sep 4.2 19:29:49 10° NNE 19:32:33 19° ENE 19:33:39 17° E visible
02 Sep 5.1 21:05:22 10° NW 21:08:08 19° W 21:08:34 19° W visible
03 Sep 4.5 19:13:23 10° NE 19:15:35 15° ENE 19:17:31 11° ESE visible
03 Sep 4.7 20:48:09 10° NW 20:51:17 25° W 20:52:27 21° WSW visible
04 Sep 4.4 20:31:01 10° NNW 20:34:26 32° W 20:36:26 19° SW visible
05 Sep 3.8 20:13:57 10° NNW 20:17:34 42° W 20:20:32 14° SSW visible
06 Sep 3.3 19:56:57 10° NNW 20:00:41 56° W 20:04:24 10° S visible
